Location: Unspecified
(47.9110°N, 14.3980°E)
Time: 16:51:27
(UTC+00:00)

Daily predictions for brighter satellites

Satellite Brightness Start Highest point End
(mag) Time Altitude Azimuth Time Altitude Azimuth Time Altitude Azimuth
Meteor 2-3 Rocket 4.0 18:58:12 10° SSW 19:04:00 80° WNW 19:09:51 10° N
Cosmos 2366 rocket 4.0 18:59:02 10° S 19:05:17 79° E 19:11:31 10° NNE
Cosmos 972 Rocket 4.0 19:04:00 10° NNW 19:09:06 66° ENE 19:13:57 10° SSE
Cosmos 1782 2.9 19:05:05 10° N 19:09:07 85° W 19:13:08 10° S
SL-8 Rocket 4.4 19:12:49 10° SSW 19:18:58 69° W 19:25:12 10° N
CZ-2C R/B 2.8 19:15:16 10° NNE 19:20:27 79° WNW 19:25:38 10° SSW
Cosmos 1743 Rocket 3.6 19:16:49 10° S 19:21:15 89° E 19:25:45 10° N
SL-4 R/B 3.6 19:21:20 10° SSE 19:23:05 13° SE 19:24:17 11° ESE
SL-8 R/B 3.8 19:20:56 10° WNW 19:25:46 69° SSW 19:30:13 12° ESE
Cosmos 614 Rocket 4.5 19:22:05 10° S 19:26:48 38° ESE 19:31:34 10° NE
SL-08 R/B 4.5 19:21:01 10° S 19:27:13 76° E 19:33:23 10° NNE
Cosmos 1818 4.0 19:23:39 10° NNW 19:29:01 54° NE 19:33:51 13° ESE
USA 186 4.4 19:28:24 10° WSW 19:29:02 11° W 19:29:40 10° WNW
USA 267 3.2 19:23:06 10° ENE 19:29:39 71° SE 19:36:11 10° SW
IGS 5A 4.1 19:27:14 12° SE 19:30:48 39° ENE 19:34:40 10° N
Cosmos 1980 Rocket 3.4 19:26:13 10° NNW 19:31:14 30° NE 19:35:56 11° ESE
MetOp-B 4.3 19:26:28 10° SSE 19:31:44 61° ENE 19:37:02 10° N
IRIDIUM 106 4.3 19:29:43 10° S 19:34:54 72° E 19:40:07 10° N
BREEZE-M DEB (TANK) 2.0 19:33:00 10° WSW 19:35:26 77° SSE 19:40:47 10° ENE
Sich 1 3.4 19:31:42 10° SSE 19:35:54 45° E 19:40:09 10° NNE
Resurs 1-3 4.3 19:33:31 10° S 19:37:49 55° W 19:42:09 10° NNW
ERS-1 Rocket 4.0 19:36:07 13° ESE 19:39:53 31° ENE 19:44:18 10° N
Meteor 1-4 Rocket 3.8 19:37:40 10° NNE 19:40:39 25° ENE 19:42:31 16° ESE
Cosmos 1500 Rocket 4.1 19:37:13 10° SSW 19:41:28 60° WNW 19:45:45 10° N
Landsat 7 4.0 19:42:26 14° SSE 19:46:30 59° ENE 19:51:11 10° N
ATLAS 5 CENTAUR R/B 2.5 19:41:14 10° NW 19:46:54 78° SW 19:52:30 15° SSE
Cosmos 1697 Rocket 2.8 19:42:43 10° NNW 19:48:19 63° ENE 19:52:40 17° SE
Spot 2 Rocket 3.6 19:45:43 13° SSE 19:50:10 66° ENE 19:55:14 10° N
Cosmos 1812 2.7 19:46:19 10° N 19:50:11 89° W 19:53:37 13° S
Cosmos 1833 Rocket 2.9 19:45:03 10° S 19:50:23 47° ESE 19:55:46 10° NE
Cosmos 1666 Rocket 3.9 19:48:35 13° SSE 19:52:08 43° E 19:56:15 10° NNE
Cosmos 1900 4.3 19:48:57 10° SSW 19:53:54 86° SE 19:58:57 10° NE
Cosmos 1190 Rocket 4.5 19:49:51 10° S 19:54:43 40° ESE 19:59:38 10° NE
Cosmos 407 Rocket 3.7 19:54:29 10° S 19:59:40 53° ESE 20:04:49 10° NNE
Shenzhou-11 Module 3.0 20:01:59 10° WSW 20:03:31 21° SSW 20:03:31 21° SSW
Cosmos 1805 Rocket 3.8 19:59:46 10° SSW 20:04:11 71° W 20:08:39 10° N
Lacrosse 5 3.4 20:00:38 10° NW 20:05:12 32° NNE 20:09:47 10° ENE
SPOT 1/Viking Rocket 3.6 20:01:26 17° SSE 20:05:26 73° ENE 20:10:40 10° N
USA 234 3.3 20:00:26 18° SE 20:05:35 80° SW 20:12:10 10° NW
Cosmos 1441 Rocket 3.3 20:03:09 10° SSW 20:06:58 74° WNW 20:10:45 10° N
Cosmos 2360 4.3 20:01:31 10° NNW 20:07:16 67° ENE 20:11:06 21° SE
BREEZE-M DEB (TANK) 2.0 20:05:20 10° W 20:08:06 61° N 20:09:03 25° ENE
Cosmos 1656 4.1 20:03:03 10° NW 20:08:25 56° WSW 20:12:58 14° S
Intercosmos 25 4.0 20:04:29 10° NNW 20:09:22 57° W 20:12:22 13° S
Cosmos 1862 4.4 20:10:20 10° SSW 20:14:13 45° WNW 20:18:09 10° N
COSMOS 2406 3.4 20:12:04 10° SSW 20:17:49 80° WNW 20:23:35 10° NNE
USA 238 DEB 4.4 20:14:23 19° SSE 20:17:55 30° ESE 20:23:39 10° NE
USA 238 4.4 20:14:37 19° SSE 20:18:02 29° ESE 20:23:45 10° NE
CZ-4B DEB 4.3 20:19:00 35° SSE 20:20:15 68° ENE 20:23:35 10° N
Cosmos 1184 Rocket 3.3 20:20:55 37° ESE 20:21:27 40° E 20:24:35 10° NNE
USA 32 4.2 20:18:37 22° SSE 20:21:53 56° E 20:27:01 10° NNE
Resurs 01 Rocket 3.3 20:19:01 10° SSW 20:22:53 29° W 20:26:46 10° NW
Cosmos 389 Rocket 4.3 20:22:31 10° NW 20:25:27 26° W 20:28:19 10° SSW
SL-16 R/B 3.7 20:22:21 10° N 20:27:07 27° NE 20:30:41 15° E
Cosmos 1633 Rocket 3.0 20:23:57 18° S 20:27:15 84° E 20:31:42 10° N
Cosmos 1867 4.0 20:24:04 20° S 20:27:18 38° ESE 20:32:20 10° NE
Cosmos 2369 3.8 20:24:29 10° NNW 20:30:13 74° WSW 20:33:41 25° SSE
Cosmos 1140 Rocket 3.4 20:25:45 10° SSW 20:30:59 75° ESE 20:36:15 10° NNE
Cosmos 1707 Rocket 4.4 20:31:08 10° NNW 20:35:19 46° W 20:38:22 17° SSW
Terra 2.0 20:33:20 31° SE 20:35:28 59° ENE 20:40:10 10° N
Cosmos 1023 Rocket 4.4 20:31:07 10° SSW 20:36:23 85° ESE 20:41:43 10° NNE
ERBS 4.3 20:34:39 10° W 20:37:39 30° NNW 20:40:38 10° NE
Cosmos 1934 Rocket 4.1 20:31:21 10° S 20:37:42 84° W 20:44:08 10° N
Cosmos 2082 Rocket 2.1 20:33:25 10° SSW 20:39:02 67° ESE 20:44:42 10° NNE
SPOT 5 2.5 20:38:09 33° SSE 20:40:02 87° ENE 20:44:24 10° NNW
deb Kosmos-1763 4.0 20:39:21 45° SSE 20:40:12 61° ESE 20:43:49 10° NNE
Cosmos 2278 3.7 20:34:38 10° NNW 20:40:24 89° WSW 20:43:20 30° SSE
Okean 1 3.8 20:36:51 10° N 20:40:45 45° ENE 20:41:41 38° ESE
Cosmos 1238 Rocket 2.4 20:41:06 51° E 20:41:06 51° E 20:43:55 10° NNE
Okean 1-7 3.9 20:37:51 10° N 20:41:50 34° ENE 20:42:51 30° ESE
GP-B 3.5 20:39:49 10° N 20:44:13 63° W 20:47:05 21° SSW
ATLAS 5 CENTAUR R/B 3.4 20:42:55 10° NNW 20:45:08 23° NE 20:47:55 14° E
Cosmos 1470 Rocket 3.5 20:45:57 33° S 20:47:54 78° E 20:52:19 10° NNE
Meteor 1-20 Rocket 4.2 20:45:11 24° S 20:48:46 74° E 20:54:36 10° NNE
Cosmos 2322 Rocket 3.4 20:46:04 10° NNW 20:51:08 32° NE 20:54:08 20° E
Cosmos 676 Rocket 3.9 20:48:15 23° S 20:51:38 72° ESE 20:56:59 10° NNE
Cosmos 1437 Rocket 3.3 20:49:43 10° N 20:53:22 39° ENE 20:53:46 38° E
CENTAUR R/B 3.2 20:53:11 29° ESE 20:53:43 29° ESE 20:59:24 10° NE
Meteor 1-19 Rocket 4.3 20:48:27 10° N 20:53:50 61° ENE 20:55:55 36° SE
SAR-Lupe-2 3.7 20:53:09 10° N 20:56:44 69° WNW 20:58:00 37° SW
Cosmos 1602 3.7 20:56:41 55° SE 20:57:12 61° E 21:01:05 10° NNE
Cosmos 1862 Rocket 4.2 20:57:10 10° NNW 21:01:32 51° W 21:03:30 29° SSW
SL-4 R/B 3.3 20:58:21 10° SW 21:00:06 24° SW 21:00:06 24° SW
Cosmos 2360 Rocket 3.8 21:02:01 10° N 21:06:41 25° NE 21:09:55 16° E
Cosmos 921 Rocket 2.9 21:06:08 10° NNW 21:10:23 80° WSW 21:11:11 57° S
SWARM A 4.3 21:07:43 10° N 21:10:50 71° NE 21:10:50 71° NE
USA 267 4.0 21:06:13 10° NE 21:12:33 54° NNW 21:18:52 10° W
NOSS 3-2 (A) 3.3 21:10:18 26° SSW 21:13:32 64° ESE 21:19:57 10° NE
Cosmos 1980 Rocket 2.6 21:10:01 10° NW 21:15:33 55° WSW 21:17:42 35° S
Meteor 1-4 Rocket 4.5 21:12:51 10° NW 21:15:34 21° W 21:16:42 18° WSW
Cosmos 2100 Rocket 4.2 21:13:43 38° SE 21:15:41 53° E 21:21:39 10° NNE
Cosmos 405 Rocket 2.5 21:15:51 69° SW 21:16:13 80° WNW 21:19:57 10° N
NOSS 3-2 (C) 3.6 21:17:19 41° SE 21:18:10 44° ESE 21:24:12 10° NE
Meteor 1-18 Rocket 4.2 21:12:35 10° NNW 21:18:13 79° W 21:20:18 40° S
Cosmos 841 Rocket 4.4 21:13:25 10° N 21:18:19 39° ENE 21:19:58 31° E
ERS-1 Rocket 4.0 21:16:07 24° SSW 21:18:34 39° W 21:23:17 10° NNW
Cosmos 2333 Rocket 4.5 21:15:49 10° N 21:19:32 17° NE 21:23:13 10° ENE
Cosmos 1741 Rocket 4.2 21:19:30 46° SE 21:20:10 49° ESE 21:25:15 10° NNE
Cosmos 468 Rocket 4.0 21:15:09 10° NNW 21:20:31 81° ENE 21:21:59 49° SE
Cosmos 1605 Rocket 4.3 21:16:13 19° SSW 21:20:37 62° WNW 21:26:41 10° N
Cosmos 1500 3.9 21:24:16 40° ENE 21:24:16 40° ENE 21:27:14 10° NNE
Genesis I 3.5 21:20:34 10° NW 21:24:20 51° WSW 21:24:20 51° WSW
Cosmos 1954 Rocket 4.4 21:22:36 18° SW 21:26:32 63° WNW 21:31:50 10° NNE
Cosmos 540 Rocket 4.1 21:22:42 10° NNW 21:27:40 44° ENE 21:29:02 36° E
Cosmos 1933 Rocket 4.0 21:27:53 37° SW 21:29:22 56° WNW 21:33:45 10° N
ATLAS 5 CENTAUR R/B 4.4 21:27:16 10° WNW 21:31:04 17° WSW 21:34:02 13° SW
Cosmos 1697 Rocket 4.4 21:27:30 10° NW 21:31:49 23° WSW 21:34:24 17° SW
Spot 4 4.1 21:32:47 48° ESE 21:33:37 55° ENE 21:38:18 10° N
Cosmos 1833 Rocket 4.3 21:29:25 10° WSW 21:34:29 34° NW 21:39:36 10° NNE
Cosmos 2173 Rocket 3.9 21:32:38 44° SSE 21:34:35 69° E 21:40:41 10° NNE
Cosmos 1666 4.3 21:36:49 24° ENE 21:36:49 24° ENE 21:38:59 10° NNE
Cosmos 1869 Rocket 3.4 21:38:49 73° SE 21:39:02 75° E 21:43:30 10° NNE
Cosmos 2242 Rocket 4.4 21:35:10 10° NNW 21:39:22 42° W 21:40:22 36° SW
Meteor 2-4 Rocket 3.6 21:33:37 10° N 21:39:23 87° E 21:40:50 52° SSE
Cosmos 2061 Rocket 4.2 21:42:53 45° SE 21:44:21 55° E 21:50:23 10° NNE
ALOS 2 3.5 21:45:50 36° E 21:46:11 36° ENE 21:50:14 10° N
Cosmos 44 3.9 21:43:43 10° NNW 21:48:28 51° NE 21:49:46 40° E
Lacrosse 5 1.9 21:43:44 10° NW 21:48:49 74° NNE 21:50:01 52° ESE
Cosmos 1703 Rocket 4.2 21:44:40 10° NNW 21:48:50 45° W 21:49:25 42° WSW
USA 234 4.4 21:47:46 24° SSW 21:49:15 26° SW 21:54:32 10° WNW
Cosmos 2016 Rocket 4.1 21:50:38 48° SSE 21:52:13 64° E 21:58:31 10° NNE
Geosat 4.2 21:55:48 52° SSW 21:56:28 57° WSW 22:01:27 10° NW
Cosmos 1459 Rocket 4.0 21:56:38 45° SSW 21:58:46 83° W 22:05:10 10° N
Cosmos 2221 Rocket 3.5 21:58:05 10° N 22:02:33 78° E 22:02:34 78° E
Cosmos 1864 Rocket 4.5 22:03:47 53° SSE 22:05:06 67° E 22:11:17 10° NNE
Cosmos 1802 Rocket 4.0 22:04:01 48° S 22:06:00 88° WNW 22:12:25 10° N
ATLAS 3B R/B 3.2 22:06:30 37° ESE 22:06:30 37° ESE 22:12:26 10° NE
USA 238 DEB 3.9 22:01:41 10° SW 22:08:19 70° NW 22:15:17 10° NE
USA 238 3.9 22:01:55 11° SW 22:08:25 70° NW 22:15:23 10° NE
Iridium 4 Rocket 3.5 22:08:20 51° WSW 22:08:44 53° W 22:12:57 10° N
Cosmos 1763 Rocket 4.0 22:05:01 10° NNW 22:10:06 47° WSW 22:10:49 44° SW
SL-16 R/B 2.2 22:06:04 10° NNW 22:11:42 65° WSW 22:12:32 57° SSW
Terra 3.8 22:12:14 17° WSW 22:13:36 19° W 22:16:56 10° NW
Cosmos 967 Rocket 4.5 22:07:36 10° NW 22:14:02 77° NE 22:15:51 49° SE
Cosmos 1733 Rocket 3.3 22:18:38 58° ENE 22:18:38 58° ENE 22:22:31 10° NNE
Thor Agena Rocket 3.5 22:14:20 10° NNE 22:19:25 80° WNW 22:20:09 65° SW
Meteor 1-11 Rocket 3.6 22:19:40 65° S 22:20:33 85° E 22:26:18 10° NNE
Cosmos 2082 Rocket 4.2 22:18:54 10° WSW 22:23:38 26° NW 22:28:22 10° N
Cosmos 2237 4.1 22:18:20 10° NNW 22:24:06 82° ENE 22:25:02 63° SE
Cosmos 2219 Rocket 3.4 22:21:53 10° NNW 22:27:06 35° NE 22:29:32 25° E
Cosmos 2233 Rocket 4.1 22:26:11 54° SE 22:27:21 63° E 22:33:36 10° NNE
SL-27 R/B 4.1 22:33:49 32° NNW 22:33:49 32° NNW 22:36:08 10° N
Lacrosse 4 Rocket 3.4 22:36:44 20° ENE 22:36:44 20° ENE 22:38:32 10° NE
Okean 3 4.4 22:31:15 10° NNW 22:35:00 38° W 22:35:00 38° W
Cosmos 2322 Rocket 2.5 22:29:56 10° NW 22:35:27 52° WSW 22:35:55 51° SW
EO 1 Del DPAF 4.0 22:32:15 10° N 22:35:24 48° NW 22:35:24 48° NW
Cosmos 968 Rocket 4.5 22:39:13 33° E 22:39:13 33° E 22:43:17 10° NE
Cosmos 1536 3.4 22:43:34 53° NW 22:43:34 53° NW 22:46:57 10° N
Tsikada Rocket 4.1 22:36:53 10° NNW 22:43:15 71° W 22:44:33 55° SSW
Cosmos 1908 Rocket 4.4 22:44:01 42° ENE 22:44:01 42° ENE 22:47:35 10° NNE
CENTAUR R/B 2.8 22:40:18 28° WSW 22:43:44 67° NW 22:50:59 10° NE
COSMOS 2428 3.7 22:39:34 10° NNW 22:45:01 42° NE 22:47:13 30° E
Cosmos 2360 Rocket 2.1 22:45:34 10° NNW 22:51:14 71° WSW 22:51:39 68° SW
Cosmos 1378 Rocket 3.7 22:53:23 10° NNW 22:57:26 70° NW 22:57:26 70° NW
YAOGAN 11 4.3 23:00:08 70° ENE 23:00:08 70° ENE 23:04:38 10° N
Cosmos 2297 Rocket 4.5 23:03:47 11° E 23:04:17 11° E 23:05:30 10° E
Cosmos 2333 Rocket 2.4 22:59:11 10° NNW 23:04:57 67° ENE 23:06:14 52° ESE
Cosmos 1743 3.5 23:06:11 51° N 23:06:11 51° N 23:09:10 10° N
Cosmos 1271 Rocket 3.7 23:04:18 10° NNW 23:07:00 45° NNW 23:07:00 45° NNW
Cosmos 1975 Rocket 3.7 23:04:11 10° N 23:08:28 48° ENE 23:08:28 48° ENE
Cosmos 1975 3.8 23:09:46 40° NE 23:09:46 40° NE 23:12:47 10° NNE
NOSS 3-2 (C) 4.3 23:04:42 17° WSW 23:09:01 47° NW 23:15:35 10° NE
Cosmos 1544 4.4 23:11:11 37° NNE 23:11:11 37° NNE 23:13:35 10° NNE
PSLV R/B 4.3 23:06:28 10° NNE 23:10:39 47° E 23:10:39 47° E
COSMOS 2487 4.0 23:14:39 34° N 23:14:39 34° N 23:16:45 10° NNE
Cosmos 1242 Rocket 4.4 23:10:04 10° NNW 23:12:00 25° NW 23:12:00 25° NW
Helios 1B rocket 3.8 23:09:36 10° NNE 23:12:31 30° ENE 23:12:31 30° ENE
Cosmos 2237 Rocket 3.8 23:09:08 10° NNW 23:14:07 30° NE 23:18:06 14° ESE
Cosmos 44 Rocket 4.3 23:09:48 10° NNW 23:14:34 44° NE 23:16:29 31° E
Cosmos 1503 Rocket 4.4 23:16:19 49° ESE 23:16:21 49° ESE 23:21:32 10° NNE
Cosmos 2084 Rocket 4.3 23:20:55 43° WNW 23:21:20 44° NW 23:25:30 10° NNE
ALOS 2 4.2 23:23:14 25° W 23:23:14 25° W 23:26:17 10° NW
Cosmos 1486 Rocket 3.8 23:23:09 81° SW 23:23:25 88° WNW 23:28:39 10° NNE
Cosmos 489 Rocket 4.4 23:18:50 10° NNW 23:25:12 82° WSW 23:26:20 62° S
BREEZE-M DEB (TANK) 4.1 23:18:06 10° W 23:25:06 46° WSW 23:25:06 46° WSW
CZ-4 R/B 4.0 23:21:35 10° NNE 23:26:32 63° ESE 23:26:37 63° ESE
Helios 1A 3.9 23:31:15 41° WNW 23:31:15 41° WNW 23:34:30 10° NNW
Lacrosse 5 3.7 23:27:11 10° WNW 23:29:10 19° W 23:29:10 19° W
Meteor 1-21 4.1 23:33:41 10° NNW 23:39:33 90° W 23:40:27 66° S
Cosmos 1842 4.0 23:36:25 10° NNW 23:39:25 48° NNW 23:39:25 48° NNW
Cosmos 1707 3.7 23:38:31 10° N 23:41:57 44° ENE 23:41:57 44° ENE
Cosmos 2227 Rocket 3.7 23:51:45 22° ESE 23:52:44 23° ESE 23:57:07 10° NE
